TimeCDT,TemperatureF,Dew PointF,Humidity,Sea Level PressureIn,VisibilityMPH,Wind Direction,Wind SpeedMPH,Gust SpeedMPH,PrecipitationIn,Events,Conditions,WindDirDegrees,DateUTC
12:53 AM,66.9,53.1,61,29.99,10.0,SE,5.8,-,N/A,,Clear,140,2012-10-04 05:53:00
1:53 AM,66.0,54.0,65,30.00,10.0,SE,4.6,-,N/A,,Clear,140,2012-10-04 06:53:00
2:53 AM,66.0,54.0,65,30.01,10.0,SE,6.9,-,N/A,,Clear,140,2012-10-04 07:53:00
3:53 AM,64.9,54.0,68,30.01,10.0,SSE,5.8,-,N/A,,Clear,150,2012-10-04 08:53:00
4:53 AM,64.9,55.9,73,30.02,10.0,SSE,4.6,-,N/A,,Clear,150,2012-10-04 09:53:00
5:53 AM,64.0,55.9,75,30.04,10.0,SE,3.5,-,N/A,,Partly Cloudy,130,2012-10-04 10:53:00
6:53 AM,64.0,57.0,78,30.04,10.0,SSE,5.8,-,N/A,,Partly Cloudy,150,2012-10-04 11:53:00
7:53 AM,66.0,59.0,78,30.06,10.0,SE,6.9,-,N/A,,Partly Cloudy,140,2012-10-04 12:53:00
8:53 AM,69.1,60.1,73,30.07,10.0,SE,8.1,-,N/A,,Scattered Clouds,130,2012-10-04 13:53:00
9:48 AM,73.4,60.8,65,30.10,10.0,SSE,10.4,-,N/A,,Mostly Cloudy,150,2012-10-04 14:48:00
9:53 AM,75.0,62.1,64,30.08,10.0,SSE,10.4,-,N/A,,Mostly Cloudy,150,2012-10-04 14:53:00
10:53 AM,77.0,63.0,62,30.08,10.0,SSE,11.5,-,N/A,,Mostly Cloudy,150,2012-10-04 15:53:00
11:34 AM,78.8,64.4,61,30.11,10.0,South,11.5,-,N/A,,Overcast,170,2012-10-04 16:34:00
11:53 AM,79.0,64.9,62,30.10,10.0,SSE,12.7,-,N/A,,Overcast,150,2012-10-04 16:53:00
12:53 PM,82.0,66.0,58,30.08,10.0,SSE,11.5,-,N/A,,Mostly Cloudy,150,2012-10-04 17:53:00
1:53 PM,84.9,66.0,53,30.06,10.0,South,17.3,-,N/A,,Mostly Cloudy,170,2012-10-04 18:53:00
2:53 PM,82.9,66.9,58,30.04,10.0,SSE,13.8,-,N/A,,Mostly Cloudy,150,2012-10-04 19:53:00
3:53 PM,84.9,66.0,53,30.03,10.0,SSE,12.7,-,N/A,,Mostly Cloudy,150,2012-10-04 20:53:00
4:53 PM,84.9,66.0,53,30.02,10.0,SSE,11.5,-,N/A,,Mostly Cloudy,150,2012-10-04 21:53:00
5:53 PM,84.0,64.9,53,30.01,10.0,SSE,11.5,-,N/A,,Mostly Cloudy,150,2012-10-04 22:53:00
6:53 PM,82.9,64.9,54,30.02,10.0,SE,10.4,-,N/A,,Mostly Cloudy,140,2012-10-04 23:53:00
7:53 PM,82.0,64.9,56,30.03,10.0,ESE,6.9,-,N/A,,Mostly Cloudy,120,2012-10-05 00:53:00
8:53 PM,81.0,64.9,58,30.04,10.0,SE,9.2,-,N/A,,Mostly Cloudy,130,2012-10-05 01:53:00
9:53 PM,80.1,64.9,60,30.03,10.0,SE,9.2,-,N/A,,Scattered Clouds,140,2012-10-05 02:53:00
10:53 PM,78.1,64.9,64,30.04,10.0,SSE,10.4,-,N/A,,Mostly Cloudy,150,2012-10-05 03:53:00
11:53 PM,78.1,64.0,62,30.04,10.0,SSW,6.9,-,N/A,,Mostly Cloudy,210,2012-10-05 04:53:00